[[{"header":{"parameterUnit":"m.s-1","parameterCategory":2,"la1":30.2991,"la2":30.254,"lo1":-89.0895,"lo2":-89.0444,"dx":0.0017,"dy":0.0017,"nx":28,"ny":28,"refTime":"2022-11-12T09:00:00:Z","depth":"0","parameterNumber":2,"parameterNumberName":"U-component_of_CURRENTS"},"data":[0,0,0,0,0,0,0,0,0,0,0,0,0,0,0,0,0,0,0,0,0,0,0,0,0,0,0,0,0,0,0,0,0,0,0,0,0,0,0,0,0,0,0,0,0,0,0,0,0,0,0,0,0,0,0,0,0,0,0.1996,0.1997,0,0.2074,0.2075,0.2076,0.2122,0.2123,0.2123,0.2123,0.2104,0.2103,0.2103,0,0,0,0,0,0,0,0,0,0,0,0,0,0.1934,0.1934,0.1996,0.1997,0.1998,0.2074,0.2075,0.2076,0.2122,0.2123,0.2123,0.2123,0.2104,0.2104,0.2103,0,0,0,0,0,0,0,0,0,0,0,0,0,0.1981,0.1935,0.1996,0.2031,0.2034,0.2074,0.2075,0.2076,0.2122,0.2123,0.2123,0.2123,0.2105,0.2104,0.2103,0.209,0,0,0.2099,0.2099,0,0,0,0,0,0,0,0,0.1978,0.1983,0.2024,0.2028,0.2033,0.2089,0.2046,0.2076,0.2122,0.2089,0.2123,0.2123,0.209,0.209,0.2105,0.2089,0.2088,0.2099,0.2099,0.2098,0.2098,0,0,0,0,0,0,0,0.1975,0.198,0.2027,0.2025,0.203,0.2058,0.2064,0.2053,0.2085,0.2092,0.2095,0.2104,0.2091,0.2106,0.2105,0.2088,0.2099,0.2098,0.2098,0.2097,0.2157,0.216,0,0,0,0,0,0,0.1963,0.1977,0.2025,0.2029,0.2006,0.2058,0.2066,0.2071,0.2087,0.2091,0.2104,0.2106,0.2108,0.2106,0.2104,0.2149,0.2098,0.2097,0.2097,0.2155,0.2158,0.216,0,0,0,0,0,0,0.1961,0.1966,0.2022,0.2005,0.2014,0.2059,0.2064,0.2072,0.2095,0.2097,0.2099,0.2119,0.2108,0.2106,0.2135,0.2145,0.2097,0.2096,0.2153,0.2156,0.2159,0.2198,0,0,0,0,0,0,0.1959,0.1965,0.1963,0.2004,0.2015,0.2058,0.2064,0.2073,0.2099,0.2103,0.211,0.2109,0.2108,0.2137,0.2134,0.2143,0.2095,0.215,0.2154,0.2158,0.2194,0.2203,0.221,0,0,0,0,0,0.1956,0.196,0.1963,0.1969,0.2012,0.2059,0.2068,0.21,0.2099,0.2119,0.2142,0.2109,0.2161,0.2138,0.2134,0.2143,0.2148,0.2153,0.2158,0.2191,0.2201,0.221,0,0,0,0,0,0,0.1935,0.1966,0.197,0.1983,0.2021,0.2067,0.2087,0.2101,0.2134,0.2136,0.2134,0.2136,0.217,0.2157,0.2132,0.2179,0.2149,0.2154,0.2176,0.2185,0.2193,0.221,0.2094,0,0,0,0,0,0.1926,0.1938,0.1975,0.1988,0.2006,0.2043,0.2063,0.2086,0.212,0.2136,0.2144,0.216,0.2186,0.2187,0.2206,0.2217,0.2209,0.2225,0.2233,0.2239,0.2255,0.2274,0.2285,0.2177,0.2177,0.2177,0,0,0.1921,0.194,0.1946,0.1984,0.2014,0.2054,0.2057,0.2096,0.2129,0.2124,0.2169,0.2186,0.2201,0.2237,0.2247,0.2223,0.2263,0.2245,0.225,0.2263,0.2281,0.2291,0.23,0.218,0.218,0.2179,0,0,0.1931,0.1935,0.1956,0.1992,0.2037,0.2061,0.2072,0.2121,0.2143,0.2185,0.2204,0.2244,0.2255,0.229,0.2302,0.2361,0.2312,0.2351,0.2388,0.2406,0.2415,0.2422,0.2402,0.2408,0.2344,0.2344,0.2344,0,0.1924,0.1958,0.1971,0.2012,0.2048,0.2066,0.2111,0.2136,0.2189,0.2212,0.2205,0.2281,0.2289,0.235,0.2384,0.2376,0.2363,0.2343,0.2414,0.2421,0.2428,0.2406,0.2412,0.2347,0.2346,0.2346,0.2346,0,0.1962,0.1994,0.2015,0.2068,0.2102,0.2146,0.2183,0.2219,0.2235,0.2255,0.2316,0.2349,0.2394,0.2402,0.241,0.2468,0.2434,0.2426,0.2382,0.2441,0.2415,0.2419,0.235,0.2349,0.2348,0.2348,0,0,0.1942,0.2024,0.2034,0.2074,0.2139,0.2173,0.2229,0.2286,0.2318,0.2354,0.2399,0.2465,0.2469,0.2489,0.25,0.2521,0.2555,0.2494,0.2493,0.2459,0.2564,0.2454,0.2448,0.2548,0.255,0.2551,0.2516,0,0.1975,0.2052,0.2087,0.2167,0.2214,0.226,0.2306,0.2352,0.2382,0.2421,0.2453,0.2492,0.25,0.2521,0.255,0.2563,0.2573,0.2563,0.2526,0.2525,0.2408,0.2453,0.2436,0.2396,0.2521,0.2521,0.2522,0,0.2008,0.2058,0.2134,0.2223,0.2246,0.2283,0.2365,0.2415,0.2467,0.2488,0.2535,0.254,0.2598,0.2583,0.2629,0.2616,0.2602,0.2598,0.2596,0.2488,0.2425,0.2365,0.24,0.242,0.2529,0.2528,0.2528,0,0.1994,0.2095,0.2151,0.2187,0.2279,0.2317,0.2363,0.2426,0.2456,0.2525,0.2536,0.2598,0.261,0.2636,0.2625,0.2631,0.2638,0.2639,0.2524,0.2514,0.2492,0.2477,0.2533,0.2666,0.2666,0.2667,0.2667,0,0.2023,0.2074,0.2143,0.218,0.2231,0.2305,0.2355,0.2417,0.2472,0.2491,0.2557,0.2566,0.2623,0.2621,0.2627,0.2575,0.2636,0.2541,0.2509,0.2501,0.2488,0.2495,0.2507,0.2665,0.2665,0.2666,0.2666,0,0.2008,0.206,0.2123,0.2206,0.2223,0.2258,0.2323,0.2357,0.2428,0.2457,0.2472,0.2531,0.254,0.256,0.2579,0.2548,0.248,0.249,0.2452,0.2416,0.2321,0.2335,0.2207,0.2136,0.2375,0.2372,0.237,0,0.2008,0.2039,0.2107,0.2122,0.2155,0.2206,0.223,0.2314,0.2343,0.2419,0.2417,0.2439,0.2437,0.2415,0.2398,0.2374,0.236,0.2305,0.2327,0.2317,0.2313,0.222,0.2164,0.2311,0.2308,0.2306,0.2304,0,0.2007,0.2022,0.2068,0.2075,0.2095,0.2126,0.2168,0.2173,0.2267,0.2292,0.231,0.2318,0.2312,0.2283,0.2239,0.2225,0.2244,0.2254,0.229,0.2302,0.2165,0.208,0.2305,0.2285,0.2287,0.2288,0.2289,0.229,0.1988,0.1989,0.2017,0.2017,0.2036,0.2029,0.2027,0.207,0.2086,0.2123,0.2177,0.2203,0.2237,0.2186,0.213,0.2096,0.2061,0.2105,0.213,0.204,0.1953,0.2096,0.2006,0.2006,0.2006,0.2007,0.2007,0,0.194,0.194,0.1951,0.1938,0.1918,0.1951,0.1967,0.196,0.1942,0.2023,0.2042,0.212,0.2104,0.2118,0.2105,0.2043,0.1946,0.2015,0.1968,0.1923,0.2122,0.2107,0.198,0.198,0.198,0.198,0.198,0.198,0.1919,0.1889,0.1873,0.1807,0.1801,0.1762,0.1753,0.176,0.1813,0.1855,0.1922,0.1994,0.212,0.2204,0.2173,0.2108,0.1996,0.1893,0.185,0.2129,0.2142,0.2155,0.2147,0.203,0.203,0.1604,0.1601,0.1599]},{"header":{"parameterUnit":"m.s-1","parameterCategory":2,"la1":30.2991,"la2":30.254,"lo1":-89.0895,"lo2":-89.0444,"dx":0.0017,"dy":0.0017,"nx":28,"ny":28,"refTime":"2022-11-12T09:00:00:Z","depth":"0","parameterNumber":3,"parameterNumberName":"V-component_of_CURRENTS"},"data":[0,0,0,0,0,0,0,0,0,0,0,0,0,0,0,0,0,0,0,0,0,0,0,0,0,0,0,0,0,0,0,0,0,0,0,0,0,0,0,0,0,0,0,0,0,0,0,0,0,0,0,0,0,0,0,0,0,0,-0.0328,-0.0329,0,-0.0405,-0.0406,-0.0407,-0.0463,-0.0464,-0.0464,-0.0464,-0.0551,-0.0553,-0.0555,0,0,0,0,0,0,0,0,0,0,0,0,0,-0.0292,-0.0292,-0.0328,-0.0329,-0.0329,-0.0405,-0.0406,-0.0407,-0.0463,-0.0464,-0.0464,-0.0464,-0.0551,-0.0553,-0.0555,0,0,0,0,0,0,0,0,0,0,0,0,0,-0.0334,-0.0292,-0.0328,-0.0365,-0.0369,-0.0405,-0.0406,-0.0408,-0.0463,-0.0464,-0.0464,-0.0464,-0.055,-0.0553,-0.0556,-0.0567,0,0,-0.0565,-0.0567,0,0,0,0,0,0,0,0,-0.0331,-0.0335,-0.0359,-0.0362,-0.0367,-0.0423,-0.0425,-0.0461,-0.0463,-0.043,-0.0464,-0.0465,-0.0508,-0.0514,-0.0531,-0.0571,-0.0574,-0.0566,-0.0567,-0.0569,-0.057,0,0,0,0,0,0,0,-0.0328,-0.0333,-0.0361,-0.0359,-0.0364,-0.0399,-0.0405,-0.0433,-0.0467,-0.0433,-0.0436,-0.0441,-0.051,-0.0528,-0.0533,-0.0576,-0.0565,-0.0568,-0.057,-0.0571,-0.0685,-0.0686,0,0,0,0,0,0,-0.031,-0.0329,-0.0358,-0.0363,-0.0347,-0.0399,-0.0406,-0.0406,-0.0467,-0.0476,-0.0441,-0.0444,-0.0522,-0.0529,-0.0536,-0.0554,-0.0569,-0.0572,-0.0573,-0.0684,-0.0685,-0.0687,0,0,0,0,0,0,-0.0309,-0.0312,-0.0355,-0.0347,-0.0354,-0.0398,-0.0399,-0.0408,-0.0424,-0.0473,-0.0482,-0.0447,-0.0523,-0.0532,-0.0596,-0.0557,-0.0573,-0.0576,-0.0682,-0.0684,-0.0686,-0.0587,0,0,0,0,0,0,-0.0308,-0.0311,-0.0307,-0.0345,-0.0354,-0.0375,-0.0399,-0.0409,-0.0425,-0.0429,-0.0481,-0.049,-0.0524,-0.0592,-0.06,-0.0562,-0.0578,-0.0681,-0.0683,-0.0685,-0.0589,-0.0585,-0.0582,0,0,0,0,0,-0.0306,-0.0301,-0.0307,-0.031,-0.0346,-0.0375,-0.0383,-0.0418,-0.0425,-0.0433,-0.0494,-0.0488,-0.061,-0.0596,-0.0605,-0.0566,-0.068,-0.0683,-0.0685,-0.059,-0.0586,-0.0582,0,0,0,0,0,0,-0.029,-0.0307,-0.0314,-0.0316,-0.034,-0.0383,-0.0391,-0.041,-0.0462,-0.0467,-0.0515,-0.053,-0.0569,-0.0599,-0.0583,-0.0613,-0.0638,-0.0643,-0.0563,-0.0559,-0.0556,-0.0485,-0.0581,0,0,0,0,0,-0.028,-0.0277,-0.0305,-0.0306,-0.0313,-0.0348,-0.0363,-0.0384,-0.0431,-0.0452,-0.0494,-0.0544,-0.0586,-0.0599,-0.065,-0.0665,-0.0664,-0.0648,-0.0644,-0.064,-0.0594,-0.0588,-0.0578,-0.0695,-0.0695,-0.0695,0,0,-0.0274,-0.0282,-0.0282,-0.0301,-0.0321,-0.033,-0.0359,-0.0375,-0.0382,-0.0453,-0.0486,-0.0539,-0.0596,-0.0625,-0.064,-0.064,-0.0615,-0.0644,-0.0639,-0.0594,-0.059,-0.0577,-0.0566,-0.0697,-0.0697,-0.0696,0,0,-0.0259,-0.0265,-0.0257,-0.0274,-0.0294,-0.0315,-0.0314,-0.0355,-0.037,-0.0416,-0.0465,-0.0491,-0.0572,-0.0581,-0.0601,-0.0607,-0.061,-0.0635,-0.0536,-0.0532,-0.052,-0.051,-0.0511,-0.0501,-0.0617,-0.0617,-0.0617,0,-0.0249,-0.0242,-0.0261,-0.0262,-0.0265,-0.0302,-0.0295,-0.0319,-0.0379,-0.0369,-0.0419,-0.0485,-0.0534,-0.0521,-0.0532,-0.0584,-0.0599,-0.0538,-0.052,-0.0509,-0.05,-0.0504,-0.0494,-0.0612,-0.0613,-0.0613,-0.0614,0,-0.0231,-0.0228,-0.0225,-0.0229,-0.0237,-0.024,-0.0265,-0.0274,-0.0297,-0.0309,-0.0315,-0.0389,-0.0407,-0.0435,-0.0487,-0.0439,-0.0478,-0.0523,-0.051,-0.0481,-0.049,-0.0481,-0.0606,-0.0608,-0.0609,-0.061,0,0,-0.0202,-0.0207,-0.0207,-0.0186,-0.0215,-0.0207,-0.0211,-0.0198,-0.0162,-0.0216,-0.0169,-0.0234,-0.0241,-0.0264,-0.0315,-0.0306,-0.0272,-0.0378,-0.038,-0.0342,-0.027,-0.0307,-0.0302,-0.0321,-0.0319,-0.0317,-0.0307,0,-0.0179,-0.0148,-0.0169,-0.0138,-0.0116,-0.0141,-0.0128,-0.0119,-0.0127,-0.01,-0.0117,-0.0119,-0.0187,-0.0191,-0.0185,-0.0265,-0.0244,-0.027,-0.0335,-0.0336,-0.034,-0.029,-0.0311,-0.0304,-0.0299,-0.0297,-0.0296,0,-0.0153,-0.0128,-0.0085,-0.0048,-0.004,-0.0027,0.0029,0.0029,0.0057,0.0052,0.0075,0.0037,0.0053,-0.0025,-0.0062,-0.0086,-0.0147,-0.0203,-0.0206,-0.0252,-0.0354,-0.0334,-0.0289,-0.0415,-0.0284,-0.0285,-0.0286,0,-0.0085,-0.0066,-0.0012,-0.0009,0.0016,0.0053,0.0069,0.0099,0.013,0.0162,0.0186,0.0187,0.0179,0.0121,-0.0,-0.0033,-0.0054,-0.012,-0.0194,-0.0199,-0.0229,-0.0239,-0.0271,-0.0108,-0.0108,-0.0108,-0.0108,0,-0.0042,-0.0,0.0034,0.0064,0.0149,0.0139,0.0225,0.0236,0.0272,0.0331,0.0284,0.0319,0.0212,0.0169,0.0062,-0.0034,-0.0002,-0.0138,-0.0181,-0.0203,-0.0211,-0.0335,-0.0414,-0.0108,-0.0108,-0.0108,-0.0108,0,0.002,0.0033,0.0104,0.0157,0.0184,0.0251,0.0312,0.0369,0.0381,0.0452,0.0464,0.0429,0.0361,0.0248,0.014,0.0044,-0.0126,-0.0091,-0.0111,-0.0156,-0.0346,-0.042,-0.0452,-0.0534,-0.0151,-0.0152,-0.0152,0,0.0059,0.01,0.0183,0.0236,0.0265,0.035,0.0406,0.0432,0.0481,0.0518,0.0559,0.0516,0.0488,0.0321,0.0139,-0.002,-0.0144,-0.0136,-0.0186,-0.0318,-0.0433,-0.047,-0.054,-0.0201,-0.0202,-0.0202,-0.0203,0,0.0134,0.016,0.0221,0.0319,0.0398,0.0472,0.0548,0.0605,0.0632,0.0675,0.0704,0.0684,0.0516,0.0337,0.0115,-0.0007,-0.0239,-0.0155,-0.0281,-0.0439,-0.049,-0.0604,-0.0258,-0.0209,-0.0208,-0.0208,-0.0208,-0.0207,0.0196,0.0252,0.0321,0.0413,0.0493,0.0573,0.0636,0.0702,0.0776,0.0828,0.0807,0.0783,0.0518,0.0202,0.0026,-0.0305,-0.0299,-0.0406,-0.0474,-0.049,-0.059,-0.0252,-0.0267,-0.0267,-0.0267,-0.0267,-0.0266,0,0.0267,0.0317,0.0403,0.0505,0.0576,0.0603,0.0709,0.0759,0.0838,0.0884,0.0895,0.0728,0.0424,0.0107,-0.033,-0.0569,-0.0665,-0.0705,-0.0767,-0.0818,-0.0503,-0.0529,-0.0616,-0.0616,-0.0616,-0.0616,-0.0616,-0.0616,0.0307,0.0395,0.0424,0.0548,0.0608,0.0694,0.0748,0.0825,0.0873,0.0894,0.0856,0.0803,0.0505,-0.0189,-0.0726,-0.0862,-0.1052,-0.1073,-0.1173,-0.0976,-0.0953,-0.0932,-0.0973,-0.1152,-0.1153,-0.1463,-0.1466,-0.1469]}],[{"header":{"parameterUnit":"m.s-1","parameterCategory":2,"la1":30.2991,"la2":30.254,"lo1":-89.0895,"lo2":-89.0444,"dx":0.0017,"dy":0.0017,"nx":28,"ny":28,"refTime":"2022-11-12T09:00:00:Z","depth":"2","parameterNumber":2,"parameterNumberName":"U-component_of_CURRENTS"},"data":[0,0,0,0,0,0,0,0,0,0,0,0,0,0,0,0,0,0,0,0,0,0,0,0,0,0,0,0,0,0,0,0,0,0,0,0,0,0,0,0,0,0,0,0,0,0,0,0,0,0,0,0,0,0,0,0,0,0,0.1922,0.1923,0,0.1981,0.1981,0.1982,0.2025,0.2026,0.2026,0.2026,0.2005,0.2005,0.2004,0,0,0,0,0,0,0,0,0,0,0,0,0,0.1876,0.1876,0.1922,0.1923,0.1924,0.198,0.1981,0.1982,0.2025,0.2026,0.2026,0.2026,0.2006,0.2005,0.2004,0,0,0,0,0,0,0,0,0,0,0,0,0,0.1912,0.1876,0.1922,0.1951,0.1954,0.198,0.1981,0.1983,0.2025,0.2026,0.2026,0.2026,0.2006,0.2005,0.2004,0.1988,0,0,0.2,0.1999,0,0,0,0,0,0,0,0,0.191,0.1914,0.1946,0.1949,0.1953,0.1995,0.1957,0.198,0.2025,0.1999,0.2026,0.2027,0.1993,0.1993,0.2006,0.1987,0.1986,0.2,0.1999,0.1999,0.1998,0,0,0,0,0,0,0,0.1907,0.1912,0.1947,0.1947,0.1951,0.197,0.1976,0.1962,0.1993,0.2002,0.2005,0.2009,0.1995,0.2007,0.2006,0.1986,0.2,0.1999,0.1998,0.1998,0.2029,0.2031,0,0,0,0,0,0,0.1896,0.1909,0.1945,0.1948,0.1931,0.1971,0.1977,0.1982,0.1995,0.1998,0.2009,0.2011,0.2009,0.2007,0.2005,0.2058,0.1999,0.1997,0.1997,0.2028,0.203,0.2031,0,0,0,0,0,0,0.1895,0.1899,0.1942,0.1929,0.1936,0.1971,0.1976,0.1983,0.2008,0.2001,0.2002,0.2028,0.2009,0.2007,0.1991,0.2055,0.1997,0.1996,0.2026,0.2028,0.2031,0.2119,0,0,0,0,0,0,0.1893,0.1898,0.1898,0.1928,0.1936,0.1974,0.1976,0.1984,0.2008,0.2012,0.2017,0.2015,0.201,0.1992,0.1989,0.2052,0.1995,0.2024,0.2027,0.203,0.2114,0.2124,0.2132,0,0,0,0,0,0.1891,0.1896,0.1898,0.1902,0.1935,0.1974,0.1981,0.2008,0.2009,0.2029,0.2014,0.2016,0.2011,0.1991,0.1988,0.2052,0.2023,0.2026,0.203,0.211,0.2122,0.2132,0,0,0,0,0,0,0.1878,0.1902,0.1904,0.1916,0.1947,0.1982,0.1998,0.2012,0.202,0.2015,0.2007,0.2004,0.2041,0.2012,0.1991,0.2071,0.2029,0.2032,0.2091,0.2103,0.2112,0.2123,0.1994,0,0,0,0,0,0.1872,0.1882,0.1911,0.1922,0.1937,0.1967,0.1984,0.2002,0.2012,0.2019,0.2025,0.2028,0.2052,0.2044,0.2063,0.2066,0.2047,0.2114,0.2123,0.2131,0.2139,0.2156,0.2167,0.2043,0.2043,0.2043,0,0,0.1867,0.1882,0.1887,0.192,0.1943,0.198,0.198,0.2011,0.2043,0.201,0.2049,0.2066,0.2064,0.2102,0.2115,0.2079,0.2154,0.2136,0.2143,0.2146,0.216,0.2172,0.2183,0.2045,0.2045,0.2045,0,0,0.1877,0.1881,0.19,0.1932,0.1968,0.1989,0.2,0.2042,0.2063,0.2083,0.2099,0.2135,0.2139,0.2175,0.2185,0.2244,0.222,0.2261,0.2296,0.2313,0.2323,0.2332,0.231,0.2316,0.2245,0.2245,0.2245,0,0.187,0.1904,0.1913,0.1951,0.1983,0.1996,0.2039,0.2061,0.2094,0.2113,0.2102,0.2177,0.2185,0.2249,0.2285,0.2272,0.2251,0.2255,0.2325,0.2334,0.2341,0.2317,0.2323,0.225,0.2249,0.2249,0.2248,0,0.1904,0.1938,0.1957,0.2007,0.2038,0.2079,0.2111,0.2148,0.2165,0.2182,0.2251,0.2266,0.2307,0.234,0.2326,0.2407,0.2366,0.2353,0.2297,0.2359,0.2329,0.2333,0.2256,0.2255,0.2253,0.2252,0,0,0.1884,0.1965,0.1974,0.2016,0.2077,0.2107,0.2163,0.2219,0.2252,0.2288,0.2336,0.2411,0.2418,0.2431,0.2446,0.2464,0.251,0.2427,0.2426,0.2405,0.2513,0.2405,0.2399,0.2502,0.2504,0.2505,0.2465,0,0.1917,0.1991,0.2027,0.2108,0.2155,0.22,0.2246,0.2289,0.2318,0.2359,0.2393,0.2437,0.2448,0.2474,0.2503,0.252,0.2527,0.2519,0.2456,0.2454,0.2351,0.2403,0.2212,0.2154,0.2469,0.247,0.247,0,0.1947,0.1997,0.2074,0.2169,0.2192,0.223,0.2314,0.2363,0.2412,0.2433,0.2481,0.2486,0.2549,0.2532,0.258,0.2568,0.2551,0.2548,0.2545,0.2418,0.2355,0.2146,0.215,0.2477,0.2476,0.2476,0.2475,0,0.1933,0.2036,0.2097,0.2132,0.2228,0.2269,0.2316,0.2376,0.2406,0.2473,0.2484,0.2547,0.2561,0.2585,0.2572,0.2579,0.2583,0.2585,0.2468,0.2458,0.227,0.2241,0.2607,0.2607,0.2607,0.2607,0.2607,0,0.1964,0.2019,0.209,0.2129,0.2184,0.2259,0.2313,0.2374,0.2429,0.2445,0.2509,0.2516,0.2573,0.2567,0.2573,0.2519,0.2579,0.2483,0.2452,0.2292,0.2267,0.2528,0.252,0.2605,0.2606,0.2606,0.2606,0,0.1951,0.2005,0.207,0.2158,0.2177,0.2213,0.2282,0.2318,0.2388,0.2416,0.243,0.2483,0.2488,0.2507,0.2522,0.249,0.2472,0.2428,0.2217,0.2162,0.2336,0.2333,0.2318,0.2314,0.2311,0.2308,0.2306,0,0.1951,0.1986,0.2055,0.207,0.2107,0.2162,0.2188,0.2275,0.2304,0.2377,0.2373,0.239,0.2379,0.2353,0.23,0.2264,0.236,0.2061,0.2061,0.2342,0.2313,0.2314,0.2315,0.1838,0.1832,0.1827,0.1823,0,0.1954,0.197,0.2017,0.2023,0.2046,0.2079,0.2125,0.2129,0.2226,0.2244,0.2255,0.2255,0.2214,0.2077,0.2017,0.1983,0.2062,0.1959,0.2308,0.1943,0.1886,0.1858,0.1876,0.178,0.1784,0.1787,0.179,0.1791,0.1938,0.1939,0.1968,0.1967,0.1987,0.1978,0.1978,0.2,0.2008,0.1985,0.2066,0.1979,0.1959,0.1759,0.1687,0.1622,0.1781,0.1714,0.173,0.1751,0.1705,0.1646,0.1484,0.1487,0.1489,0.1491,0.1493,0,0.1883,0.1893,0.1903,0.1889,0.1857,0.1903,0.1918,0.1859,0.1801,0.1776,0.1747,0.1539,0.1432,0.1422,0.1247,0.1239,0.1252,0.1199,0.1208,0.125,0.1288,0.1221,0.087,0.0868,0.0867,0.0865,0,0,0.1861,0.1824,0.1808,0.1734,0.1738,0.1663,0.1652,0.1561,0.1504,0.1358,0.1275,0.1324,0.1359,0.1087,0.1053,0.0931,0.109,0.0892,0.1387,0.1439,0.1475,0.1575,0.1517,0,0,0,0,0]},{"header":{"parameterUnit":"m.s-1","parameterCategory":2,"la1":30.2991,"la2":30.254,"lo1":-89.0895,"lo2":-89.0444,"dx":0.0017,"dy":0.0017,"nx":28,"ny":28,"refTime":"2022-11-12T09:00:00:Z","depth":"2","parameterNumber":3,"parameterNumberName":"V-component_of_CURRENTS"},"data":[0,0,0,0,0,0,0,0,0,0,0,0,0,0,0,0,0,0,0,0,0,0,0,0,0,0,0,0,0,0,0,0,0,0,0,0,0,0,0,0,0,0,0,0,0,0,0,0,0,0,0,0,0,0,0,0,0,0,-0.0217,-0.0217,0,-0.0262,-0.0263,-0.0264,-0.0318,-0.0319,-0.0319,-0.032,-0.038,-0.0381,-0.0382,0,0,0,0,0,0,0,0,0,0,0,0,0,-0.0205,-0.0205,-0.0216,-0.0217,-0.0217,-0.0262,-0.0263,-0.0264,-0.0318,-0.0319,-0.0319,-0.032,-0.0379,-0.0381,-0.0382,0,0,0,0,0,0,0,0,0,0,0,0,0,-0.0229,-0.0205,-0.0216,-0.0247,-0.025,-0.0262,-0.0263,-0.0264,-0.0318,-0.0319,-0.032,-0.032,-0.0379,-0.0381,-0.0382,-0.0375,0,0,-0.0387,-0.0388,0,0,0,0,0,0,0,0,-0.0228,-0.023,-0.0242,-0.0245,-0.0248,-0.0283,-0.0281,-0.0301,-0.0318,-0.0295,-0.032,-0.0321,-0.0346,-0.035,-0.0361,-0.0378,-0.0381,-0.0387,-0.0388,-0.0389,-0.0389,0,0,0,0,0,0,0,-0.0226,-0.0228,-0.0238,-0.0243,-0.0246,-0.0269,-0.0273,-0.0285,-0.0318,-0.0297,-0.0301,-0.0301,-0.0348,-0.036,-0.0363,-0.0382,-0.0387,-0.0389,-0.039,-0.039,-0.0432,-0.0432,0,0,0,0,0,0,-0.0212,-0.0227,-0.0236,-0.0239,-0.0237,-0.0268,-0.0273,-0.0273,-0.0318,-0.0324,-0.03,-0.0303,-0.0356,-0.0361,-0.0365,-0.0388,-0.0389,-0.039,-0.0391,-0.0432,-0.0432,-0.0432,0,0,0,0,0,0,-0.0211,-0.0212,-0.0234,-0.0231,-0.0235,-0.0266,-0.0267,-0.0274,-0.029,-0.0319,-0.0327,-0.0309,-0.0357,-0.0363,-0.0328,-0.039,-0.0391,-0.0393,-0.0432,-0.0432,-0.0432,-0.0416,0,0,0,0,0,0,-0.0211,-0.0212,-0.0209,-0.023,-0.0235,-0.0245,-0.0266,-0.0274,-0.0287,-0.0292,-0.0329,-0.0336,-0.0358,-0.0325,-0.033,-0.0392,-0.0394,-0.0432,-0.0432,-0.0432,-0.0416,-0.0415,-0.0415,0,0,0,0,0,-0.021,-0.0204,-0.0209,-0.021,-0.023,-0.0245,-0.025,-0.0277,-0.0286,-0.0295,-0.0276,-0.0335,-0.0334,-0.0323,-0.0329,-0.0395,-0.0432,-0.0432,-0.0432,-0.0416,-0.0416,-0.0415,0,0,0,0,0,0,-0.0203,-0.0209,-0.0215,-0.0213,-0.0228,-0.0253,-0.0256,-0.0273,-0.027,-0.0263,-0.0292,-0.0295,-0.0329,-0.0329,-0.0317,-0.0408,-0.0412,-0.0413,-0.0398,-0.0398,-0.0397,-0.0322,-0.0395,0,0,0,0,0,-0.0196,-0.0191,-0.0206,-0.0204,-0.0206,-0.0229,-0.0238,-0.0254,-0.0252,-0.0255,-0.0284,-0.0303,-0.0336,-0.033,-0.0374,-0.0365,-0.0349,-0.0425,-0.0424,-0.0424,-0.0366,-0.0361,-0.0353,-0.0434,-0.0434,-0.0434,0,0,-0.0191,-0.0193,-0.0191,-0.0201,-0.0211,-0.0214,-0.0238,-0.0244,-0.0248,-0.0258,-0.027,-0.0315,-0.0339,-0.0365,-0.0381,-0.0362,-0.0402,-0.0424,-0.0423,-0.0365,-0.036,-0.0352,-0.0344,-0.0434,-0.0434,-0.0434,0,0,-0.0174,-0.018,-0.0167,-0.0178,-0.0186,-0.02,-0.02,-0.0228,-0.0241,-0.0236,-0.0275,-0.0289,-0.0344,-0.0355,-0.0369,-0.0369,-0.0424,-0.045,-0.0353,-0.0351,-0.0343,-0.0336,-0.0339,-0.0332,-0.0418,-0.0418,-0.0418,0,-0.0165,-0.0156,-0.0169,-0.0163,-0.0162,-0.0191,-0.018,-0.0198,-0.0216,-0.0197,-0.0237,-0.0286,-0.0329,-0.0316,-0.0333,-0.037,-0.0377,-0.0359,-0.0347,-0.0339,-0.0332,-0.0336,-0.0329,-0.0417,-0.0417,-0.0417,-0.0417,0,-0.0142,-0.0138,-0.0132,-0.0131,-0.0133,-0.0131,-0.0147,-0.0155,-0.0178,-0.0185,-0.0199,-0.0231,-0.0236,-0.0308,-0.0314,-0.0311,-0.034,-0.0375,-0.0343,-0.0322,-0.033,-0.0322,-0.0416,-0.0416,-0.0417,-0.0417,0,0,-0.0114,-0.0113,-0.0111,-0.0091,-0.0113,-0.01,-0.0101,-0.0085,-0.0051,-0.0102,-0.006,-0.0131,-0.0141,-0.0151,-0.0204,-0.0191,-0.0185,-0.0248,-0.0249,-0.0238,-0.0187,-0.0223,-0.0219,-0.0232,-0.023,-0.0229,-0.0224,0,-0.009,-0.0054,-0.0072,-0.0041,-0.0017,-0.0038,-0.0025,-0.0011,-0.0017,0.0006,-0.0012,-0.002,-0.0088,-0.0098,-0.0094,-0.0178,-0.0158,-0.0182,-0.0215,-0.0215,-0.0239,-0.0208,-0.0175,-0.0168,-0.0216,-0.0215,-0.0214,0,-0.006,-0.0034,0.001,0.0045,0.0054,0.0067,0.012,0.0123,0.0152,0.0149,0.0166,0.0128,0.0136,0.0062,0.0018,-0.0004,-0.0066,-0.0121,-0.0124,-0.0137,-0.0234,-0.0191,-0.0153,-0.0201,-0.0202,-0.0203,-0.0204,0,0.0004,0.0026,0.0076,0.008,0.0106,0.0139,0.0155,0.0187,0.0219,0.025,0.0272,0.0268,0.0256,0.0197,0.0075,0.0044,0.0018,-0.0045,-0.0119,-0.0124,-0.0081,-0.0086,-0.0035,-0.0035,-0.0035,-0.0035,-0.0035,0,0.0045,0.0084,0.0119,0.0146,0.0227,0.022,0.0302,0.0313,0.0349,0.0408,0.0362,0.0393,0.0286,0.0241,0.0136,0.0037,0.0068,-0.0065,-0.0108,-0.0082,-0.0086,-0.0098,-0.0105,-0.0035,-0.0035,-0.0035,-0.0035,0,0.0103,0.0116,0.0184,0.0235,0.026,0.0326,0.0384,0.0439,0.0452,0.052,0.053,0.0496,0.0425,0.0314,0.0205,0.011,0.0016,-0.0025,0.0008,-0.003,-0.0141,-0.0147,-0.0087,-0.0087,-0.0088,-0.0089,-0.0089,0,0.014,0.0178,0.026,0.0312,0.0337,0.0419,0.0473,0.0499,0.0547,0.0582,0.0622,0.0576,0.0548,0.0378,0.0213,0.0059,0.0017,-0.002,-0.0057,-0.0089,-0.0137,-0.0143,-0.0149,-0.0011,-0.0011,-0.0011,-0.0011,0,0.0209,0.0234,0.0293,0.039,0.0465,0.0538,0.0611,0.0666,0.0693,0.0734,0.076,0.0739,0.0583,0.043,0.0213,0.0108,0.0004,-0.0024,-0.0037,-0.0015,-0.0021,-0.0069,-0.0075,-0.001,-0.001,-0.001,-0.001,-0.001,0.0266,0.032,0.0388,0.0478,0.0556,0.0636,0.0697,0.0766,0.0839,0.0895,0.0863,0.083,0.0655,0.0381,0.0197,0.0009,0.0009,-0.006,-0.0058,-0.0057,-0.0061,-0.0069,-0.0067,-0.0067,-0.0068,-0.0068,-0.0068,0,0.0336,0.038,0.0463,0.0565,0.0642,0.0663,0.0767,0.0838,0.0924,0.0957,0.0967,0.0814,0.063,0.0423,0.0153,-0.0021,-0.0026,-0.0079,-0.0043,-0.0042,-0.0042,-0.0044,-0.0046,-0.0047,-0.0047,-0.0048,0,0,0.0373,0.0462,0.0492,0.0617,0.0672,0.0784,0.0838,0.0944,0.1,0.1045,0.1012,0.0944,0.069,0.0494,0.0267,0.011,0.0071,0.0079,0.0084,0.0156,0.0158,-0.0004,-0.0003,0,0,0,0,0]}],[{"header":{"parameterUnit":"m.s-1","parameterCategory":2,"la1":30.2991,"la2":30.254,"lo1":-89.0895,"lo2":-89.0444,"dx":0.0017,"dy":0.0017,"nx":28,"ny":28,"refTime":"2022-11-12T09:00:00:Z","depth":"4","parameterNumber":2,"parameterNumberName":"U-component_of_CURRENTS"},"data":[0,0,0,0,0,0,0,0,0,0,0,0,0,0,0,0,0,0,0,0,0,0,0,0,0,0,0,0,0,0,0,0,0,0,0,0,0,0,0,0,0,0,0,0,0,0,0,0,0,0,0,0,0,0,0,0,0,0,0.0731,0.0731,0,0.067,0.0669,0.0669,0.064,0.064,0.064,0.064,0.0716,0.0718,0.072,0,0,0,0,0,0,0,0,0,0,0,0,0,0.0796,0.0796,0.0731,0.073,0.073,0.067,0.0669,0.0668,0.064,0.064,0.064,0.064,0.0715,0.0717,0.072,0,0,0,0,0,0,0,0,0,0,0,0,0,0.0756,0.0795,0.0731,0.0708,0.0705,0.067,0.0669,0.0668,0.064,0.064,0.064,0.064,0.0714,0.0717,0.072,0.0739,0,0,0.0729,0.0731,0,0,0,0,0,0,0,0,0.0758,0.0753,0.0712,0.0709,0.0706,0.0662,0.0719,0.0699,0.064,0.0666,0.064,0.064,0.071,0.0713,0.0701,0.0743,0.0746,0.073,0.0731,0.0733,0.0734,0,0,0,0,0,0,0,0.0761,0.0756,0.0708,0.0711,0.0708,0.0691,0.0685,0.0715,0.0692,0.0664,0.0661,0.0653,0.0709,0.0698,0.0703,0.0747,0.073,0.0732,0.0734,0.0735,0.0828,0.0829,0,0,0,0,0,0,0.0768,0.0759,0.071,0.0706,0.0732,0.069,0.0684,0.0677,0.0689,0.0689,0.0653,0.0652,0.0693,0.0699,0.0706,0.077,0.0733,0.0736,0.0737,0.0828,0.0828,0.0829,0,0,0,0,0,0,0.077,0.0765,0.0712,0.073,0.0722,0.0689,0.0681,0.0676,0.0689,0.0679,0.0682,0.0675,0.0693,0.0701,0.0748,0.0772,0.0737,0.074,0.0827,0.0828,0.0829,0.0875,0,0,0,0,0,0,0.0772,0.0766,0.0771,0.0731,0.0721,0.0691,0.0681,0.0675,0.0682,0.068,0.0699,0.0703,0.0694,0.0744,0.0751,0.0776,0.0742,0.0826,0.0827,0.0828,0.0872,0.0877,0.0881,0,0,0,0,0,0.0775,0.0758,0.0771,0.0766,0.0727,0.0691,0.0685,0.0662,0.0683,0.0678,0.0704,0.0704,0.0756,0.0747,0.0756,0.0782,0.0825,0.0827,0.0828,0.087,0.0876,0.0881,0,0,0,0,0,0,0.0782,0.0753,0.0766,0.0743,0.0729,0.0686,0.0687,0.0684,0.0699,0.0729,0.0724,0.073,0.0766,0.0775,0.0765,0.0809,0.0787,0.079,0.0816,0.0822,0.0826,0.0865,0.0745,0,0,0,0,0,0.0792,0.078,0.0755,0.0744,0.0749,0.0737,0.0728,0.0724,0.0725,0.0732,0.0747,0.077,0.0774,0.0801,0.0803,0.0852,0.0874,0.0869,0.0874,0.0877,0.0913,0.0976,0.099,0.0834,0.0834,0.0834,0,0,0.0796,0.0778,0.0774,0.0748,0.075,0.0746,0.0732,0.0739,0.0749,0.0745,0.0788,0.0787,0.0786,0.0814,0.0834,0.0834,0.0923,0.0879,0.0883,0.0917,0.0979,0.0995,0.1009,0.0835,0.0835,0.0835,0,0,0.0784,0.0793,0.0783,0.0776,0.078,0.0775,0.0788,0.0783,0.08,0.0837,0.0825,0.0858,0.0877,0.0878,0.088,0.0923,0.0932,0.0912,0.099,0.1049,0.1063,0.1076,0.1085,0.1099,0.0931,0.0931,0.0931,0,0.08,0.0774,0.0774,0.0766,0.0765,0.0796,0.0795,0.0816,0.0828,0.0872,0.0862,0.0922,0.0909,0.0957,0.0949,0.0937,0.0958,0.0968,0.1058,0.1072,0.1084,0.1091,0.1105,0.0933,0.0933,0.0933,0.0933,0,0.078,0.0768,0.0768,0.0775,0.0776,0.0783,0.0813,0.0856,0.09,0.0933,0.101,0.1007,0.1057,0.1031,0.1,0.1077,0.1055,0.1043,0.105,0.1103,0.1105,0.112,0.0937,0.0936,0.0935,0.0935,0,0,0.0787,0.0759,0.0762,0.0771,0.0785,0.0793,0.0843,0.0898,0.0973,0.1027,0.1115,0.112,0.1174,0.118,0.116,0.1198,0.1261,0.1165,0.1167,0.1184,0.1371,0.123,0.1232,0.1275,0.1279,0.1282,0.1323,0,0.0778,0.0769,0.0742,0.0755,0.077,0.0803,0.0841,0.0917,0.0996,0.1098,0.1173,0.124,0.1218,0.1246,0.1297,0.1252,0.1309,0.125,0.131,0.1311,0.119,0.1248,0.1293,0.1333,0.1337,0.1339,0.1341,0,0.0764,0.0764,0.0769,0.0775,0.0786,0.0816,0.0927,0.0947,0.1102,0.1168,0.1304,0.1368,0.1446,0.1414,0.1476,0.1442,0.1437,0.1409,0.141,0.1287,0.12,0.1278,0.1367,0.1365,0.1363,0.1361,0.1359,0,0.0792,0.0774,0.0788,0.079,0.0813,0.0862,0.0894,0.1018,0.1073,0.1242,0.1317,0.1462,0.1514,0.1567,0.154,0.1522,0.1584,0.1551,0.1437,0.1425,0.1519,0.1505,0.1646,0.1645,0.1645,0.1645,0.1645,0,0.077,0.0782,0.0828,0.0839,0.0899,0.0909,0.1,0.1056,0.1179,0.1257,0.1377,0.1466,0.1558,0.1612,0.1597,0.1551,0.1651,0.1473,0.1446,0.1527,0.1514,0.1526,0.1511,0.1647,0.1646,0.1646,0.1646,0,0.0767,0.0783,0.0809,0.0872,0.0907,0.0961,0.104,0.1101,0.1197,0.1302,0.1358,0.1496,0.1532,0.159,0.1632,0.1582,0.1563,0.1534,0.1601,0.1572,0.1351,0.1338,0.1418,0.1414,0.141,0.1407,0.1405,0,0.0747,0.0767,0.0849,0.0888,0.0922,0.1005,0.1048,0.1128,0.118,0.1301,0.1343,0.1449,0.1522,0.1475,0.153,0.1518,0.1498,0.148,0.1443,0.1372,0.1338,0.1331,0.1323,0.1399,0.1398,0.1397,0.1396,0,0.0715,0.0768,0.0798,0.0884,0.0952,0.0987,0.1065,0.1109,0.1169,0.127,0.1313,0.1353,0.1386,0.1414,0.1409,0.1403,0.1481,0.1443,0.145,0.1415,0.135,0.1318,0.1314,0.1384,0.1386,0.1387,0.1388,0,0.0712,0.0739,0.0798,0.0862,0.0925,0.0952,0.0998,0.104,0.1088,0.1211,0.1231,0.13,0.1389,0.1355,0.1357,0.1328,0.1303,0.125,0.1267,0.1281,0.1212,0.1108,0.1069,0,0,0,0,0,0.0707,0.0724,0.0765,0.0815,0.0859,0.0893,0.0981,0.102,0.1107,0.11,0.1162,0.1186,0.119,0.1239,0.1178,0.1287,0.1306,0.1209,0.1254,0.1316,0.133,0.1259,0,0,0,0,0,0,0.0699,0.0744,0.0747,0.0748,0.0762,0.0794,0.0847,0.0909,0.0913,0.1014,0.1028,0.109,0.1119,0.12,0.1147,0.1154,0.1151,0.1252,0.1248,0.1308,0.1321,0.1332,0.1264,0,0,0,0,0]},{"header":{"parameterUnit":"m.s-1","parameterCategory":2,"la1":30.2991,"la2":30.254,"lo1":-89.0895,"lo2":-89.0444,"dx":0.0017,"dy":0.0017,"nx":28,"ny":28,"refTime":"2022-11-12T09:00:00:Z","depth":"4","parameterNumber":3,"parameterNumberName":"V-component_of_CURRENTS"},"data":[0,0,0,0,0,0,0,0,0,0,0,0,0,0,0,0,0,0,0,0,0,0,0,0,0,0,0,0,0,0,0,0,0,0,0,0,0,0,0,0,0,0,0,0,0,0,0,0,0,0,0,0,0,0,0,0,0,0,0.041,0.0411,0,0.0521,0.0522,0.0523,0.0573,0.0573,0.0573,0.0573,0.0581,0.0582,0.0582,0,0,0,0,0,0,0,0,0,0,0,0,0,0.0277,0.0279,0.0409,0.0411,0.0413,0.0521,0.0522,0.0523,0.0573,0.0573,0.0573,0.0573,0.0581,0.0581,0.0582,0,0,0,0,0,0,0,0,0,0,0,0,0,0.0353,0.0279,0.0409,0.0452,0.0457,0.0521,0.0522,0.0524,0.0573,0.0573,0.0573,0.0573,0.0581,0.0581,0.0582,0.058,0,0,0.0582,0.0582,0,0,0,0,0,0,0,0,0.0349,0.0358,0.0444,0.0449,0.0455,0.0535,0.0479,0.0538,0.0573,0.0526,0.0573,0.0573,0.0558,0.056,0.0579,0.058,0.0581,0.0582,0.0582,0.0582,0.0583,0,0,0,0,0,0,0,0.0343,0.0354,0.0451,0.0446,0.0453,0.0479,0.049,0.0491,0.0536,0.053,0.0535,0.0551,0.056,0.0578,0.0579,0.0581,0.0582,0.0582,0.0583,0.0583,0.0592,0.0592,0,0,0,0,0,0,0.0333,0.0348,0.0447,0.0455,0.0404,0.0482,0.0493,0.0507,0.0538,0.0545,0.0551,0.0553,0.0578,0.0579,0.0579,0.061,0.0582,0.0583,0.0583,0.0592,0.0592,0.0592,0,0,0,0,0,0,0.033,0.0341,0.0443,0.0406,0.0421,0.0484,0.0499,0.051,0.0543,0.0556,0.056,0.0576,0.0578,0.0579,0.0604,0.0609,0.0583,0.0583,0.0592,0.0592,0.0592,0.065,0,0,0,0,0,0,0.0325,0.0339,0.0353,0.0405,0.0423,0.0491,0.05,0.0512,0.0554,0.0558,0.0578,0.0579,0.0578,0.0604,0.0605,0.0609,0.0583,0.0592,0.0592,0.0592,0.0648,0.0652,0.0656,0,0,0,0,0,0.032,0.0351,0.0353,0.0366,0.0438,0.0492,0.0504,0.0547,0.0555,0.0576,0.0595,0.0579,0.0605,0.0606,0.0606,0.061,0.0591,0.0592,0.0592,0.0646,0.0651,0.0655,0,0,0,0,0,0,0.0311,0.0361,0.0364,0.0409,0.0447,0.0502,0.0536,0.0554,0.0588,0.0586,0.0596,0.0598,0.062,0.0604,0.0605,0.061,0.0589,0.0589,0.0629,0.0634,0.0638,0.0602,0.0583,0,0,0,0,0,0.031,0.0338,0.0385,0.0418,0.0442,0.0485,0.0515,0.0532,0.0568,0.0585,0.06,0.0605,0.0618,0.0621,0.0626,0.0634,0.0587,0.063,0.0634,0.0637,0.0606,0.0545,0.0541,0.0593,0.0593,0.0593,0,0,0.0314,0.0345,0.0361,0.0416,0.0451,0.0491,0.0504,0.0546,0.057,0.0576,0.0617,0.0626,0.0626,0.0644,0.0648,0.0633,0.0605,0.0638,0.0641,0.0607,0.0545,0.054,0.0535,0.0593,0.0593,0.0593,0,0,0.0343,0.0365,0.0401,0.0435,0.0483,0.0501,0.0514,0.0565,0.0582,0.0615,0.0626,0.0635,0.066,0.0657,0.0659,0.068,0.0634,0.0685,0.0672,0.0615,0.0609,0.0604,0.0568,0.0559,0.068,0.068,0.068,0,0.0344,0.0401,0.042,0.0468,0.0505,0.0507,0.0555,0.0568,0.0614,0.0617,0.0628,0.0648,0.0657,0.0662,0.0677,0.0687,0.0652,0.0663,0.0619,0.0612,0.0605,0.057,0.0559,0.0683,0.0683,0.0682,0.0682,0,0.0401,0.0452,0.0482,0.0531,0.0561,0.0604,0.062,0.0628,0.0638,0.0641,0.065,0.0661,0.0659,0.0674,0.0688,0.0654,0.0647,0.064,0.0607,0.0603,0.0567,0.0554,0.0687,0.0686,0.0685,0.0684,0,0,0.04,0.0502,0.0514,0.0546,0.0602,0.0622,0.0647,0.0664,0.0657,0.0666,0.0664,0.0684,0.066,0.0657,0.0666,0.0622,0.0576,0.0613,0.0609,0.0577,0.046,0.0463,0.045,0.0564,0.0561,0.0559,0.0465,0,0.0446,0.053,0.0579,0.0645,0.0688,0.07,0.0725,0.0718,0.0706,0.069,0.066,0.0662,0.0662,0.0664,0.0617,0.0592,0.054,0.0602,0.0465,0.0461,0.0464,0.0433,0.0551,0.0455,0.0452,0.045,0.0449,0,0.0496,0.0543,0.0625,0.0694,0.0716,0.0747,0.0748,0.0768,0.0728,0.072,0.0677,0.065,0.0603,0.0599,0.0497,0.0539,0.0488,0.0457,0.0452,0.0413,0.0439,0.045,0.0425,0.0427,0.0429,0.043,0.0432,0,0.0474,0.0577,0.0635,0.0665,0.0735,0.0761,0.0784,0.0769,0.0772,0.0721,0.0699,0.063,0.06,0.0513,0.0446,0.0465,0.0323,0.0342,0.0288,0.029,0.0291,0.0297,0.0231,0.0231,0.0232,0.0232,0.0232,0,0.051,0.0558,0.0625,0.0659,0.0701,0.0751,0.0773,0.0778,0.0771,0.0756,0.0704,0.0666,0.0571,0.0485,0.042,0.0313,0.0293,0.0259,0.025,0.0325,0.0335,0.0284,0.0292,0.0228,0.0229,0.023,0.023,0,0.0497,0.0553,0.0616,0.0686,0.0704,0.0726,0.0788,0.0788,0.0786,0.076,0.0746,0.0676,0.0576,0.0475,0.0344,0.0287,0.0188,0.0151,0.0241,0.0242,0.02,0.0212,0.0075,0.0074,0.0073,0.0073,0.0072,0,0.0505,0.0535,0.0611,0.0639,0.0685,0.0722,0.0752,0.0787,0.0788,0.0763,0.0745,0.0653,0.0591,0.0403,0.0312,0.0165,0.0151,0.0093,0.0133,0.0172,0.0176,0.019,0.0202,0.0071,0.0071,0.007,0.007,0,0.0508,0.0536,0.0579,0.063,0.0675,0.0716,0.076,0.0762,0.0788,0.0775,0.0721,0.0631,0.0518,0.0397,0.0279,0.0179,0.0128,0.0084,0.0086,0.0122,0.0165,0.0173,0.0187,0.0067,0.0067,0.0068,0.0068,0,0.0502,0.0521,0.0575,0.062,0.067,0.0712,0.0735,0.0748,0.0757,0.0736,0.0713,0.0611,0.0552,0.0403,0.0296,0.0195,0.0179,0.0148,0.0146,0.0149,0.0206,0.0273,0.0174,0,0,0,0,0,0.0498,0.0521,0.056,0.062,0.067,0.0709,0.0743,0.0761,0.0769,0.073,0.0727,0.0626,0.0475,0.0412,0.031,0.0286,0.0164,0.0162,0.0128,0.005,0.0054,0.0109,0,0,0,0,0,0,0.0495,0.0535,0.0554,0.0611,0.0654,0.0712,0.0745,0.0754,0.0731,0.0721,0.0641,0.0601,0.0455,0.0536,0.0309,0.028,0.0243,0.0094,0.0091,0.0048,0.0051,0.0054,0.0113,0,0,0,0,0]}]]